TimeEST,TemperatureF,Dew PointF,Humidity,Sea Level PressureIn,VisibilityMPH,Wind Direction,Wind SpeedMPH,Gust SpeedMPH,PrecipitationIn,Events,Conditions,WindDirDegrees,DateUTC
12:14 AM,36.5,28.2,72,29.92,10.0,WSW,18.4,26.5,N/A,,Mostly Cloudy,240,2011-12-25 05:14:00
12:34 AM,36.1,27.7,71,29.91,10.0,WSW,15.0,21.9,N/A,,Mostly Cloudy,240,2011-12-25 05:34:00
12:54 AM,35.8,28.2,74,29.90,10.0,SW,10.4,19.6,N/A,,Scattered Clouds,230,2011-12-25 05:54:00
1:14 AM,35.8,28.0,73,29.89,10.0,WSW,15.0,19.6,N/A,,Mostly Cloudy,240,2011-12-25 06:14:00
1:35 AM,36.0,28.0,73,29.89,10.0,WSW,12.7,19.6,N/A,,Mostly Cloudy,240,2011-12-25 06:35:00
1:54 AM,36.1,28.4,73,29.89,10.0,SW,10.4,16.1,N/A,,Overcast,230,2011-12-25 06:54:00
2:14 AM,36.5,29.1,75,29.88,10.0,SW,12.7,-,N/A,,Overcast,230,2011-12-25 07:14:00
2:35 AM,36.9,29.3,74,29.87,10.0,SW,11.5,-,N/A,,Overcast,230,2011-12-25 07:35:00
2:54 AM,36.9,30.0,76,29.87,10.0,WSW,11.5,-,N/A,,Overcast,240,2011-12-25 07:54:00
3:14 AM,37.4,29.8,74,29.87,10.0,SW,13.8,18.4,N/A,,Overcast,230,2011-12-25 08:14:00
3:34 AM,37.4,30.0,75,29.86,10.0,WSW,16.1,20.7,N/A,,Overcast,240,2011-12-25 08:34:00
3:54 AM,36.9,30.2,77,29.84,10.0,SW,8.1,17.3,N/A,,Scattered Clouds,230,2011-12-25 08:54:00
4:14 AM,36.1,30.9,81,29.83,10.0,SW,6.9,-,N/A,,Scattered Clouds,220,2011-12-25 09:14:00
4:34 AM,35.6,30.7,82,29.82,10.0,SSW,6.9,-,N/A,,Scattered Clouds,210,2011-12-25 09:34:00
4:54 AM,35.6,30.7,82,29.81,10.0,SW,8.1,-,N/A,,Scattered Clouds,220,2011-12-25 09:54:00
5:15 AM,36.0,31.1,82,29.81,10.0,SSW,5.8,-,N/A,,Scattered Clouds,210,2011-12-25 10:15:00
5:34 AM,36.9,31.6,81,29.80,10.0,SW,9.2,-,N/A,,Mostly Cloudy,230,2011-12-25 10:34:00
5:54 AM,37.4,29.8,74,29.80,10.0,WSW,11.5,25.3,N/A,,Mostly Cloudy,240,2011-12-25 10:54:00
6:14 AM,37.0,29.8,75,29.80,10.0,WSW,13.8,21.9,N/A,,Mostly Cloudy,240,2011-12-25 11:14:00
6:34 AM,36.9,29.3,74,29.80,10.0,WSW,11.5,23.0,N/A,,Mostly Cloudy,250,2011-12-25 11:34:00
6:55 AM,37.0,29.7,75,29.80,10.0,West,15.0,20.7,N/A,,Mostly Cloudy,260,2011-12-25 11:55:00
7:14 AM,36.9,29.3,74,29.80,10.0,West,19.6,25.3,N/A,,Overcast,260,2011-12-25 12:14:00
7:34 AM,37.0,29.1,73,29.79,10.0,WSW,16.1,26.5,N/A,,Mostly Cloudy,250,2011-12-25 12:34:00
7:54 AM,36.7,28.6,72,29.80,10.0,West,20.7,27.6,N/A,,Mostly Cloudy,260,2011-12-25 12:54:00
8:14 AM,36.9,28.9,73,29.80,10.0,West,19.6,26.5,N/A,,Overcast,270,2011-12-25 13:14:00
8:35 AM,36.5,29.1,75,29.81,10.0,West,18.4,24.2,N/A,,Overcast,260,2011-12-25 13:35:00
8:54 AM,35.6,30.2,81,29.81,7.0,West,20.7,27.6,N/A,Snow,Light Snow,270,2011-12-25 13:54:00
9:14 AM,34.3,30.6,86,29.82,2.5,West,13.8,21.9,N/A,Snow,Light Snow,280,2011-12-25 14:14:00
9:35 AM,35.2,30.0,81,29.82,10.0,West,12.7,24.2,N/A,,Overcast,280,2011-12-25 14:35:00
9:54 AM,33.8,31.6,92,29.83,3.0,WNW,11.5,21.9,N/A,Snow,Light Snow,290,2011-12-25 14:54:00
10:14 AM,33.8,32.0,93,29.84,10.0,West,11.5,17.3,N/A,,Overcast,280,2011-12-25 15:14:00
10:34 AM,34.2,30.9,88,29.84,10.0,West,12.7,17.3,N/A,,Overcast,280,2011-12-25 15:34:00
10:54 AM,34.3,31.1,88,29.85,4.0,West,13.8,24.2,N/A,Snow,Light Snow,280,2011-12-25 15:54:00
11:15 AM,34.0,32.0,92,29.86,5.0,West,16.1,23.0,N/A,Snow,Light Snow,280,2011-12-25 16:15:00
11:34 AM,34.2,32.0,92,29.86,5.0,West,16.1,21.9,N/A,,Overcast,280,2011-12-25 16:34:00
11:54 AM,34.3,32.0,91,29.86,5.0,WNW,13.8,20.7,N/A,Snow,Light Snow,290,2011-12-25 16:54:00
12:15 PM,34.5,32.7,93,29.87,5.0,WNW,15.0,23.0,N/A,Snow,Light Snow,290,2011-12-25 17:15:00
12:34 PM,34.7,32.9,93,29.87,7.0,WNW,18.4,26.5,N/A,Snow,Light Snow,290,2011-12-25 17:34:00
12:54 PM,34.7,32.2,91,29.87,7.0,WNW,17.3,24.2,N/A,Snow,Light Snow,290,2011-12-25 17:54:00
1:15 PM,34.9,32.2,90,29.88,10.0,WNW,15.0,20.7,N/A,Snow,Light Snow,300,2011-12-25 18:15:00
1:34 PM,34.9,32.0,89,29.89,10.0,WNW,16.1,26.5,N/A,Snow,Light Snow,290,2011-12-25 18:34:00
1:54 PM,35.1,32.0,89,29.90,7.0,WNW,13.8,20.7,N/A,Snow,Light Snow,290,2011-12-25 18:54:00
2:14 PM,35.6,32.0,87,29.91,10.0,WNW,18.4,25.3,N/A,,Overcast,300,2011-12-25 19:14:00
2:34 PM,35.6,32.0,87,29.92,10.0,WNW,18.4,27.6,N/A,,Overcast,300,2011-12-25 19:34:00
2:54 PM,35.4,32.0,87,29.94,10.0,NNW,18.4,28.8,N/A,,Overcast,330,2011-12-25 19:54:00
3:14 PM,34.7,32.0,90,29.95,7.0,NW,17.3,27.6,N/A,Rain,Light Rain,320,2011-12-25 20:14:00
3:34 PM,34.3,32.0,91,29.97,7.0,NW,20.7,29.9,N/A,,Overcast,320,2011-12-25 20:34:00
3:54 PM,34.0,32.0,92,29.99,5.0,NW,19.6,32.2,N/A,Snow,Light Snow,320,2011-12-25 20:54:00
4:14 PM,34.0,32.0,92,30.00,10.0,NW,17.3,29.9,N/A,,Overcast,320,2011-12-25 21:14:00
4:34 PM,34.7,30.6,85,30.02,10.0,NW,20.7,29.9,N/A,,Overcast,310,2011-12-25 21:34:00
4:54 PM,34.7,29.8,82,30.03,10.0,NW,21.9,32.2,N/A,,Overcast,310,2011-12-25 21:54:00
5:14 PM,34.3,31.1,88,30.05,7.0,NW,17.3,26.5,N/A,,Overcast,310,2011-12-25 22:14:00
5:35 PM,34.3,29.8,84,30.07,10.0,NW,17.3,26.5,N/A,,Overcast,310,2011-12-25 22:35:00
5:54 PM,34.2,30.0,85,30.08,5.0,NW,21.9,28.8,N/A,,Overcast,310,2011-12-25 22:54:00
6:14 PM,34.3,29.1,81,30.09,10.0,NW,23.0,28.8,N/A,,Overcast,320,2011-12-25 23:14:00
6:35 PM,34.3,28.8,80,30.10,10.0,NW,18.4,25.3,N/A,,Overcast,320,2011-12-25 23:35:00
6:54 PM,34.3,29.1,81,30.11,10.0,NW,18.4,26.5,N/A,,Overcast,310,2011-12-25 23:54:00
7:14 PM,33.8,29.8,85,30.12,10.0,WNW,18.4,25.3,N/A,,Overcast,300,2011-12-26 00:14:00
7:35 PM,32.5,29.8,90,30.14,3.0,WNW,17.3,29.9,N/A,Snow,Light Snow,300,2011-12-26 00:35:00
7:54 PM,34.0,27.3,77,30.14,10.0,NW,19.6,27.6,N/A,,Overcast,310,2011-12-26 00:54:00
8:14 PM,34.0,27.7,78,30.14,10.0,NW,21.9,29.9,N/A,,Overcast,320,2011-12-26 01:14:00
8:35 PM,33.8,27.0,76,30.16,10.0,NW,13.8,24.2,N/A,,Overcast,320,2011-12-26 01:35:00
8:54 PM,33.8,27.5,78,30.16,10.0,NW,16.1,23.0,N/A,,Overcast,320,2011-12-26 01:54:00
9:14 PM,33.8,26.4,74,30.16,10.0,NW,16.1,25.3,N/A,,Overcast,320,2011-12-26 02:14:00
9:34 PM,33.4,26.8,77,30.17,10.0,NW,11.5,21.9,N/A,,Overcast,320,2011-12-26 02:34:00
9:54 PM,33.4,26.4,75,30.17,10.0,NW,13.8,20.7,N/A,,Overcast,310,2011-12-26 02:54:00
10:14 PM,33.3,27.1,78,30.17,10.0,NW,12.7,18.4,N/A,,Overcast,320,2011-12-26 03:14:00
10:34 PM,33.3,26.6,77,30.17,10.0,NW,11.5,-,N/A,,Overcast,310,2011-12-26 03:34:00
10:54 PM,33.4,26.6,76,30.17,10.0,NW,11.5,-,N/A,,Overcast,320,2011-12-26 03:54:00
11:15 PM,33.4,25.5,73,30.17,10.0,WNW,10.4,20.7,N/A,,Overcast,300,2011-12-26 04:15:00
11:34 PM,33.4,25.5,73,30.18,10.0,NW,8.1,20.7,N/A,,Overcast,310,2011-12-26 04:34:00
11:54 PM,33.4,25.3,72,30.18,10.0,NW,10.4,-,N/A,,Overcast,310,2011-12-26 04:54:00